Vertical_Velocity
-11 -10 -9 -6 -6 -5 -4 -3 -3 -2 -1 -0 0 3 2 5 9 7 1 3 2 -1
-9 -9 -9 -6 -7 -4 -4 -2 -2 -2 -1 -1 0 2 3 3 3 5 7 3 6 -5
-7 -7 -8 -5 -4 -5 -3 -2 -1 -2 -2 -1 0 0 -0 6 4 4 5 7 8 2
-8 -8 -6 -6 -4 -4 -1 -3 -1 -2 -1 -1 -0 -1 -2 3 6 7 5 10 2 8
-6 -8 -5 -5 -5 -5 -0 -2 -2 -2 -2 -1 -1 0 -1 2 2 6 7 5 3 17
-6 -6 -7 -5 -4 -5 -0 -1 -1 -2 -2 -1 -0 1 -3 -2 4 -1 5 12 -3 9
-6 -4 -5 -5 -3 -3 -4 -0 -1 -2 -0 -2 1 -1 -0 -4 -1 -3 1 7 14 14
-4 -5 -4 -4 -4 -1 -2 -2 -2 1 -0 -3 0 -1 2 -2 -6 -1 0 6 5 9
-4 -5 -4 -3 -4 -3 -1 -1 -1 -3 1 0 -0 -3 1 -2 -7 -0 3 2 7 9
-3 -2 -4 -5 -4 -4 -2 0 -1 -3 -1 1 -0 -1 0 -3 -4 1 2 -5 6 -6
-1 -2 -3 -2 -5 -3 -2 -2 1 -0 -3 3 -1 1 1 -4 2 1 3 -4 3 -0
-4 2 -3 -1 -1 -6 1 -3 0 -1 1 -1 2 -0 1 -3 2 4 5 -2 8 1
-3 -1 0 -1 -2 -0 -5 0 -1 3 -4 -1 6 -1 2 -2 2 1 5 -3 -1 8
-1 -2 -1 -0 -1 -1 -3 -2 -3 2 -0 -1 -1 4 2 -2 2 3 6 3 0 5
Height
5519 5511 5503 5495 5489 5485 5482 5481 5481 5483 5486 5492 5500 5512 5525 5541 5560 5582 5594 5613 5629 5642
5498 5490 5483 5475 5469 5465 5462 5461 5462 5463 5465 5469 5474 5483 5496 5514 5534 5553 5574 5589 5607 5620
5482 5474 5466 5459 5453 5448 5445 5444 5445 5447 5448 5450 5453 5458 5470 5487 5505 5530 5547 5569 5587 5600
5466 5459 5451 5444 5438 5434 5431 5429 5430 5431 5434 5435 5436 5439 5447 5462 5478 5500 5524 5544 5564 5582
5452 5446 5439 5431 5425 5421 5418 5415 5415 5418 5420 5422 5422 5424 5429 5439 5455 5474 5497 5523 5543 5562
5439 5433 5426 5419 5412 5407 5405 5402 5402 5404 5407 5408 5409 5410 5413 5419 5432 5451 5473 5498 5520 5541
5428 5422 5415 5408 5402 5396 5392 5390 5390 5390 5393 5395 5396 5396 5398 5402 5411 5428 5450 5474 5499 5520
5418 5411 5405 5398 5391 5386 5381 5379 5377 5378 5380 5382 5383 5383 5385 5388 5394 5410 5431 5452 5477 5500
5408 5401 5395 5388 5383 5377 5372 5368 5366 5365 5367 5369 5370 5371 5371 5374 5381 5392 5410 5432 5455 5479
5397 5392 5386 5379 5373 5367 5362 5359 5356 5354 5355 5357 5359 5359 5359 5362 5368 5377 5392 5411 5434 5460
5386 5381 5376 5370 5364 5359 5353 5349 5346 5344 5344 5346 5347 5347 5348 5352 5357 5366 5377 5395 5418 5442
5373 5369 5365 5360 5354 5349 5345 5339 5336 5334 5334 5335 5336 5336 5337 5341 5346 5355 5367 5380 5402 5423
5358 5355 5352 5348 5343 5340 5335 5331 5326 5325 5323 5325 5326 5325 5327 5331 5337 5346 5357 5369 5390 5407
5343 5340 5337 5335 5331 5328 5325 5321 5316 5315 5314 5314 5315 5316 5318 5322 5328 5337 5347 5358 5374 5394